Timestamp[UTC];2m Lufttemperatur [degC] (tas);Stations-Luftdruck [Pa] (ps);relative Luftfeuchtigkeit [%] (hurs);spezifische Luftfeuchtigkeit [kg/kg] (huss);Niederschlagsmenge [mm] (pr);Windgeschwindigkeit in 2m [m/s] (sfcWind);Windrichtung [deg];maximale Windgeschwindigkeit [m/s] (wsgsmax);u-Windkomponente [m/s] (uas);v-Windkomponente [m/s] (vas);Sonneneinstrahlung [W/m2];Blitzrate [n];Blitzentfernung [km];Bodenfeuchte in 5cm Tiefe [vol%];Bodenfeuchte in 15cm Tiefe [vol%];Bodenfeuchte in 30cm Tiefe [vol%];Bodenfeuchte in 60cm Tiefe [vol%];Bodentemperatur in 5cm Tiefe [degC];Bodentemperatur in 15cm Tiefe [degC];Bodentemperatur in 30cm Tiefe [degC];Bodentemperatur in 60cm Tiefe [degC];Matrixpotential in 30cm Tiefe [kPa];Bodenfeuchte aus CRNS [vol%] (mrso);Neutronen Anzahl [N/h]
2021-11-01 00:00:00;9,8;99450;92;0,007;0,02;0,8;244;1,9;-0,2;-0,65;0;0;0;34,3;33,5;33,5;34,7;11,3;11,8;11,6;11,6;-14,1;18,5;1688
2021-11-01 01:00:00;9,8;99432;91;0,0069;0,0;1,7;270;3,3;-0,02;-1,73;0;0;0;34,0;33,5;33,7;34,7;11,0;11,7;11,6;11,6;-13,3;18,7;1841
2021-11-01 02:00:00;9,8;99410;92;0,007;0,0;1,0;239;2,5;-0,45;-0,8;0;0;0;33,8;33,5;33,9;34,7;10,9;11,6;11,6;11,6;-12,6;18,8;1820
2021-11-01 03:00:00;9,4;99393;92;0,0068;0,0;0,9;227;2,3;-0,57;-0,59;0;0;0;33,7;33,5;34,0;34,7;10,7;11,5;11,6;11,6;-12,2;18,9;1793
2021-11-01 04:00:00;8,5;99422;92;0,0065;0,0;0,9;204;2,0;0,22;-0,36;0;0;0;33,5;33,5;34,1;34,7;10,5;11,3;11,6;11,7;-11,9;18,8;1863
2021-11-01 05:00:00;9,1;99413;89;0,0065;0,02;1,7;222;4,0;-1,21;-1,16;0;0;0;33,4;33,5;34,2;34,7;10,2;11,2;11,5;11,7;-11,7;19,0;1771
2021-11-01 06:00:00;9,2;99410;87;0,0063;0,0;2,7;241;5,0;-1,12;-2,19;2;0;0;33,3;33,5;34,2;34,7;10,0;11,0;11,5;11,7;-11,6;19,0;1829
2021-11-01 07:00:00;9,6;99462;88;0,0066;0,0;1,6;223;3,3;-1,02;-1,11;74;0;0;33,2;33,5;34,3;34,8;9,9;10,9;11,4;11,7;-11,6;19,0;1875
2021-11-01 08:00:00;11,3;99470;86;0,0072;0,0;2,2;243;5,5;-1,01;-1,94;182;0;0;33,1;33,4;34,3;34,8;10,0;10,8;11,4;11,7;-11,6;19,0;1826
2021-11-01 09:00:00;12,3;99460;77;0,0069;0,0;4,0;257;8,1;-0,84;-3,88;198;0;0;33,0;33,4;34,3;34,8;10,2;10,8;11,3;11,7;-11,6;18,9;1823
2021-11-01 10:00:00;13,3;99427;73;0,0069;0,0;4,0;259;8,7;-0,72;-3,95;307;0;0;32,9;33,4;34,4;34,8;10,4;10,8;11,3;11,7;-11,5;18,7;1746
2021-11-01 11:00:00;13,8;99392;67;0,0066;0,0;5,8;268;10,6;-0,21;-5,76;338;0;0;32,8;33,4;34,4;34,8;10,7;10,8;11,2;11,7;-11,5;18,7;1806
2021-11-01 12:00:00;14,0;99360;62;0,0062;0,0;6,0;266;9,6;-0,42;-6,03;283;0;0;32,8;33,4;34,4;34,8;10,8;10,9;11,2;11,7;-11,5;18,8;1797
2021-11-01 13:00:00;14,2;99333;60;0,006;0,0;5,7;266;10,0;-0,36;-5,68;240;0;0;32,7;33,3;34,4;34,8;10,9;10,9;11,2;11,7;-11,5;18,5;1820
2021-11-01 14:00:00;14,0;99325;60;0,006;0,0;4,7;267;8,7;-0,2;-4,72;156;0;0;32,6;33,3;34,4;34,8;10,9;11,0;11,2;11,7;-11,5;18,6;1835
2021-11-01 15:00:00;13,7;99377;60;0,0059;0,0;2,3;258;5,4;-0,44;-2,24;64;0;0;32,5;33,3;34,4;34,9;10,9;11,0;11,2;11,7;-11,5;18,5;1896
2021-11-01 16:00:00;11,7;99387;64;0,0055;0,0;1,6;252;3,5;-0,3;-1,48;4;0;0;32,4;33,3;34,5;34,9;10,6;11,1;11,2;11,7;-11,5;18,4;1841
2021-11-01 17:00:00;8,5;99440;77;0,0054;0,0;0,5;106;1,2;-0,14;0,44;0;0;0;32,4;33,2;34,5;34,9;10,3;11,0;11,2;11,7;-11,5;18,4;1898
2021-11-01 18:00:00;9,8;99490;74;0,0056;0,0;1,3;200;3,0;-1,22;-0,44;0;0;0;32,3;33,2;34,5;34,9;10,1;10,9;11,2;11,7;-11,5;18,4;1832
2021-11-01 19:00:00;9,6;99490;77;0,0057;0,0;0,7;163;2,0;-0,54;-0,11;0;0;0;32,2;33,2;34,5;34,9;10,0;10,8;11,2;11,7;-11,5;18,4;1855
2021-11-01 20:00:00;8,8;99477;79;0,0056;0,0;0,9;226;1,8;-0,57;-0,45;0;0;0;32,2;33,1;34,5;34,9;9,8;10,7;11,2;11,7;-11,5;18,6;1918
2021-11-01 21:00:00;7,3;99452;84;0,0054;0,0;0,5;99;1,3;0,08;0,15;0;0;0;32,1;33,1;34,5;35,0;9,5;10,6;11,2;11,7;-11,5;18,6;1805
2021-11-01 22:00:00;6,5;99435;88;0,0053;0,0;1,1;236;2,3;0,49;-0,47;0;0;0;32,1;33,1;34,5;35,0;9,3;10,5;11,1;11,7;-11,5;18,6;1765
2021-11-01 23:00:00;7,3;99413;87;0,0056;0,0;1,5;85;3,5;0,13;1,45;0;0;0;32,0;33,0;34,5;35,0;9,2;10,4;11,1;11,7;-11,5;18,5;1764
2021-11-02 00:00:00;7,8;99398;86;0,0057;0,0;0,6;246;1,3;0,46;-0,16;0;0;0;32,0;33,0;34,5;35,0;9,2;10,2;11,0;11,7;-11,5;18,5;1849
2021-11-02 01:00:00;8,1;99400;87;0,0059;0,0;0,8;38;1,6;0,62;0,49;0;0;0;31,9;33,0;34,5;35,0;9,3;10,2;11,0;11,7;-11,5;18,5;1815
2021-11-02 02:00:00;7,8;99402;87;0,0058;0,0;0,5;46;1,2;0,33;0,38;0;0;0;31,9;33,0;34,4;35,1;9,2;10,1;10,9;11,7;-11,5;18,5;1825
2021-11-02 03:00:00;6,4;99402;86;0,0052;0,0;0,7;53;1,5;0,39;0,45;0;0;0;31,8;32,9;34,4;35,1;8,9;10,0;10,9;11,7;-11,5;18,5;1886
2021-11-02 04:00:00;5,7;99410;87;0,005;0,0;0,5;117;1,4;-0,2;0,46;0;0;0;31,8;32,9;34,4;35,1;8,7;9,9;10,9;11,6;-11,5;18,7;1817
2021-11-02 05:00:00;5,5;99388;88;0,005;0,0;0,6;57;1,6;0,31;0,5;0;0;0;31,8;32,9;34,4;35,1;8,5;9,8;10,8;11,6;-11,5;18,6;1840
2021-11-02 06:00:00;6,1;99377;87;0,0051;0,0;1,0;175;2,3;-0,9;-0,08;1;0;0;31,7;32,9;34,4;35,1;8,4;9,7;10,7;11,6;-11,5;18,7;1820
2021-11-02 07:00:00;6,6;99387;86;0,0052;0,0;1,0;113;2,2;-0,05;0,74;32;0;0;31,7;32,9;34,4;35,1;8,3;9,6;10,7;11,6;-11,6;18,7;1794
2021-11-02 08:00:00;7,6;99390;88;0,0058;0,0;1,6;110;2,6;-0,48;1,43;110;0;0;31,6;32,8;34,4;35,1;8,5;9,5;10,6;11,6;-11,6;18,8;1822
2021-11-02 09:00:00;8,0;99410;87;0,0059;0,53;1,3;107;2,2;-0,36;1,22;67;0;0;31,6;32,8;34,4;35,2;8,8;9,5;10,5;11,6;-11,6;19,0;1853
2021-11-02 10:00:00;8,3;99405;91;0,0063;0,41;1,8;86;2,9;0,12;1,84;113;0;0;31,8;32,8;34,4;35,2;9,0;9,5;10,5;11,6;-11,6;19,0;1842
2021-11-02 11:00:00;8,8;99393;92;0,0065;0,04;2,6;82;4,0;0,34;2,54;126;0;0;31,9;32,8;34,4;35,2;9,2;9,5;10,4;11,5;-11,6;18,9;1774
2021-11-02 12:00:00;9,3;99350;91;0,0067;0,11;2,4;94;4,1;-0,18;2,41;96;0;0;31,9;32,8;34,4;35,2;9,4;9,6;10,4;11,5;-11,6;18,7;1809
2021-11-02 13:00:00;9,6;99327;89;0,0067;0,93;1,6;155;3,3;-0,88;0,99;59;0;0;31,9;32,8;34,4;35,2;9,5;9,7;10,4;11,5;-11,6;18,8;1858
2021-11-02 14:00:00;9,0;99343;93;0,0067;1,65;1,6;63;3,4;0,62;1,14;101;0;0;33,5;32,9;34,4;35,2;9,6;9,8;10,4;11,5;-11,6;18,7;1770
2021-11-02 15:00:00;9,5;99350;91;0,0068;0,49;1,0;124;1,9;-0,58;0,82;47;0;0;34,6;33,3;34,4;35,2;9,7;9,8;10,4;11,5;-11,6;18,7;1774
2021-11-02 16:00:00;9,1;99387;90;0,0066;0,0;1,4;273;3,1;0,29;-1,17;3;0;0;34,5;33,5;34,5;35,2;9,7;9,9;10,4;11,5;-11,5;18,7;1902
2021-11-02 17:00:00;8,3;99418;89;0,0061;0,06;1,2;280;2,4;0,25;-1,2;0;0;0;34,2;33,7;34,6;35,2;9,5;9,9;10,4;11,4;-11,5;18,7;1883
2021-11-02 18:00:00;7,5;99482;89;0,0058;0,0;1,6;272;3,0;0,16;-1,61;0;0;0;34,0;33,8;34,6;35,3;9,2;9,9;10,4;11,4;-11,4;18,7;1845
2021-11-02 19:00:00;6,4;99543;90;0,0054;0,02;1,0;281;2,1;0,23;-1,01;0;0;0;33,8;33,8;34,7;35,3;9,0;9,9;10,4;11,4;-11,4;18,6;1810
2021-11-02 20:00:00;5,2;99573;90;0,005;0,02;0,4;159;0,9;0,34;-0,18;0;0;0;33,7;33,8;34,8;35,3;8,6;9,8;10,4;11,4;-11,3;18,6;1758
2021-11-02 21:00:00;4,6;99600;91;0,0049;0,02;0,5;241;1,2;0,34;-0,29;0;0;0;33,5;33,8;34,8;35,3;8,3;9,6;10,4;11,4;-11,3;18,5;1814
2021-11-02 22:00:00;4,4;99563;91;0,0048;0,0;0,7;38;1,4;0,57;0,38;0;0;0;33,4;33,8;34,8;35,3;8,0;9,5;10,4;11,4;-11,3;18,5;1856
2021-11-02 23:00:00;3,5;99545;94;0,0046;0,02;0,7;32;1,4;0,57;0,36;0;0;0;33,3;33,7;34,9;35,3;7,8;9,3;10,3;11,3;-11,3;18,5;1853
2021-11-03 00:00:00;3,1;99560;95;0,0045;0,02;0,8;139;1,7;0,71;0,37;0;0;0;33,3;33,7;34,9;35,3;7,6;9,1;10,3;11,3;-11,3;18,5;1795
2021-11-03 01:00:00;3,1;99518;96;0,0046;0,02;0,5;116;1,1;0,38;0,22;0;0;0;33,2;33,7;34,9;35,3;7,5;9,0;10,2;11,3;-11,3;18,6;1932
2021-11-03 02:00:00;3,2;99452;96;0,0046;0,0;0,6;233;1,3;0,43;-0,27;0;0;0;33,1;33,7;34,9;35,4;7,4;8,9;10,1;11,3;-11,3;18,6;1826
2021-11-03 03:00:00;3,8;99443;97;0,0049;0,02;0,9;142;1,7;0,62;0,49;0;0;0;33,1;33,7;34,9;35,4;7,4;8,8;10,1;11,3;-11,3;18,4;1860
2021-11-03 04:00:00;3,7;99475;97;0,0048;0,0;0,6;223;1,0;0,34;-0,36;0;0;0;33,0;33,6;34,9;35,4;7,4;8,7;10,0;11,3;-11,3;18,5;1848
2021-11-03 05:00:00;4,1;99433;97;0,005;0,02;0,9;210;1,5;0,55;-0,43;0;0;0;32,9;33,6;34,9;35,4;7,4;8,6;9,9;11,3;-11,3;18,6;1813
2021-11-03 06:00:00;4,4;99408;97;0,0051;0,0;0,6;293;1,2;0,24;-0,55;0;0;0;32,9;33,6;34,9;35,4;7,4;8,6;9,9;11,2;-11,3;18,5;1878
2021-11-03 07:00:00;4,8;99373;98;0,0053;0,02;0,6;217;1,1;0,33;-0,13;16;0;0;32,8;33,6;34,9;35,4;7,5;8,5;9,8;11,2;-11,2;18,6;1834
2021-11-03 08:00:00;5,3;99387;99;0,0055;0,07;0,7;68;1,2;0,28;0,56;34;0;0;32,8;33,6;34,9;35,5;7,7;8,5;9,8;11,2;-11,2;18,5;1858
2021-11-03 09:00:00;6,4;99365;98;0,0059;0,23;1,7;55;2,8;0,99;1,42;50;0;0;32,8;33,5;34,9;35,5;7,8;8,5;9,7;11,2;-11,2;18,3;1855
2021-11-03 10:00:00;6,7;99350;98;0,006;1,5;1,5;55;3,0;0,87;1,24;39;0;0;32,9;33,5;34,9;35,5;7,9;8,5;9,7;11,2;-11,2;18,4;1850
2021-11-03 11:00:00;7,0;99335;97;0,0061;3,89;0,8;314;2,1;0,49;-0,6;28;0;0;35,5;33,8;34,9;35,5;8,0;8,6;9,6;11,1;-11,2;18,5;1748
2021-11-03 12:00:00;7,3;99327;97;0,0062;1,56;1,4;292;2,9;0,54;-1,27;51;0;0;37,8;35,5;35,0;35,5;8,1;8,6;9,6;11,1;-11,2;18,6;1765
2021-11-03 13:00:00;7,6;99315;95;0,0062;0,24;1,4;289;3,8;0,48;-1,35;65;0;0;37,1;36,2;35,4;35,5;8,3;8,6;9,6;11,1;-11,1;18,6;1854
2021-11-03 14:00:00;7,7;99318;92;0,006;0,0;1,4;281;3,7;0,28;-1,38;53;0;0;36,4;36,1;36,1;35,6;8,5;8,7;9,6;11,1;-11,0;18,7;1912
2021-11-03 15:00:00;7,4;99347;91;0,0059;0,0;1,4;281;3,6;0,26;-1,34;6;0;0;35,9;36,0;36,4;35,6;8,5;8,7;9,5;11,0;-11,0;18,8;1736
2021-11-03 16:00:00;7,4;99376;91;0,0059;0,28;1,2;298;2,6;0,58;-1,09;0;0;0;35,5;35,8;36,5;35,6;8,4;8,8;9,5;11,0;-10,9;18,9;1851
2021-11-03 17:00:00;7,1;99430;93;0,0059;0,09;1,5;303;3,4;0,8;-1,23;0;0;0;35,3;35,6;36,4;35,7;8,4;8,8;9,5;11,0;-10,9;18,9;1885
2021-11-03 18:00:00;7,1;99480;94;0,0059;0,0;1,7;304;3,5;0,95;-1,38;0;0;0;35,1;35,5;36,4;35,8;8,3;8,8;9,5;10,9;-10,9;18,9;1782
2021-11-03 19:00:00;7,0;99520;93;0,0058;0,14;1,9;302;3,6;1,02;-1,56;0;0;0;34,9;35,4;36,4;35,9;8,3;8,8;9,5;10,9;-10,9;19,1;1873
2021-11-03 20:00:00;7,0;99547;92;0,0058;0,0;1,8;304;3,7;1,03;-1,52;0;0;0;34,8;35,3;36,4;36,0;8,2;8,8;9,5;10,9;-10,9;19,1;1814
2021-11-03 21:00:00;7,0;99602;94;0,0059;0,0;1,6;306;3,3;0,95;-1,28;0;0;0;34,7;35,3;36,3;36,1;8,2;8,8;9,5;10,9;-10,9;19,1;1714
2021-11-03 22:00:00;7,1;99630;94;0,0059;0,0;1,8;302;4,0;0,99;-1,54;0;0;0;34,5;35,2;36,3;36,2;8,2;8,8;9,5;10,8;-10,9;19,2;1697
2021-11-03 23:00:00;7,1;99630;94;0,0059;0,0;1,8;301;4,2;0,93;-1,5;0;0;0;34,4;35,1;36,3;36,3;8,2;8,8;9,5;10,8;-10,9;19,4;1703
2021-11-04 00:00:00;7,0;99635;94;0,0059;0,0;1,5;304;3,3;0,85;-1,26;0;0;0;34,3;35,0;36,2;36,4;8,2;8,8;9,5;10,8;-10,9;19,4;1698
2021-11-04 01:00:00;6,9;99640;94;0,0059;0,0;1,6;304;3,4;0,87;-1,36;0;0;0;34,2;35,0;36,2;36,4;8,2;8,8;9,5;10,8;-10,9;19,3;1762
2021-11-04 02:00:00;6,8;99650;94;0,0058;0,0;2,2;300;3,9;1,11;-1,91;0;0;0;34,1;34,9;36,2;36,5;8,2;8,8;9,5;10,8;-10,9;19,3;1687
2021-11-04 03:00:00;6,5;99665;94;0,0057;0,0;2,2;300;4,9;1,09;-1,9;0;0;0;34,0;34,8;36,2;36,5;8,1;8,8;9,5;10,8;-11,0;19,5;1735
2021-11-04 04:00:00;6,3;99703;94;0,0056;0,0;1,8;303;3,4;0,97;-1,47;0;0;0;33,8;34,8;36,1;36,6;8,0;8,7;9,5;10,8;-11,0;19,2;1716
2021-11-04 05:00:00;6,3;99742;94;0,0056;0,0;1,8;301;4,1;0,94;-1,56;0;0;0;33,7;34,7;36,1;36,6;8,0;8,7;9,5;10,7;-11,0;19,3;1707
2021-11-04 06:00:00;6,1;99760;95;0,0056;0,0;2,2;297;4,4;1,04;-1,98;0;0;0;33,6;34,7;36,1;36,6;8,0;8,7;9,4;10,7;-11,0;19,2;1632
2021-11-04 07:00:00;5,8;99795;95;0,0054;0,0;2,6;299;5,3;1,27;-2,24;8;0;0;33,6;34,6;36,0;36,6;7,9;8,7;9,4;10,7;-11,0;19,2;1787
2021-11-04 08:00:00;6,0;99890;94;0,0055;0,0;1,6;304;3,7;0,88;-1,33;24;0;0;33,5;34,5;36,0;36,7;7,9;8,6;9,4;10,7;-11,0;19,4;1758
2021-11-04 09:00:00;6,7;99930;95;0,0058;0,0;1,2;305;2,9;0,62;-0,99;94;0;0;33,4;34,5;36,0;36,7;8,1;8,6;9,4;10,7;-11,0;19,4;1672
2021-11-04 10:00:00;7,9;99960;91;0,006;0,0;2,0;300;4,3;1,0;-1,75;106;0;0;33,3;34,4;36,0;36,7;8,4;8,6;9,4;10,7;-11,0;19,5;1645
2021-11-04 11:00:00;8,3;99982;90;0,0061;0,37;2,2;299;5,0;1,1;-1,94;95;0;0;33,3;34,4;36,0;36,7;8,6;8,7;9,4;10,7;-11,0;19,5;1591
2021-11-04 12:00:00;8,8;99993;92;0,0065;0,03;2,2;296;4,2;0,98;-1,95;195;0;0;33,3;34,4;35,9;36,7;8,8;8,8;9,4;10,6;-11,0;19,6;1696
2021-11-04 13:00:00;9,6;100035;87;0,0065;0,0;2,2;292;4,7;0,86;-2,06;105;0;0;33,3;34,3;35,9;36,7;9,1;8,9;9,4;10,6;-11,0;19,6;1712
2021-11-04 14:00:00;9,3;100090;85;0,0062;0,0;2,7;298;5,9;1,26;-2,33;58;0;0;33,2;34,3;35,9;36,8;9,0;9,0;9,4;10,6;-11,0;19,7;1667
2021-11-04 15:00:00;8,9;100155;84;0,006;0,0;2,7;292;5,6;1,01;-2,49;25;0;0;33,2;34,3;35,9;36,8;8,9;9,0;9,4;10,6;-11,0;19,7;1726
2021-11-04 16:00:00;8,4;100250;85;0,0058;0,0;2,1;295;4,0;0,92;-1,88;1;0;0;33,1;34,2;35,9;36,8;8,8;9,1;9,5;10,6;-11,0;19,8;1560
2021-11-04 17:00:00;8,2;100327;87;0,0059;0,0;1,1;301;2,3;0,51;-0,98;0;0;0;33,1;34,2;35,9;36,8;8,7;9,1;9,5;10,6;-11,0;19,7;1707
2021-11-04 18:00:00;8,0;100400;88;0,0058;0,0;0,8;306;1,7;0,44;-0,67;0;0;0;33,0;34,2;35,9;36,8;8,7;9,1;9,5;10,6;-11,0;19,6;1567
2021-11-04 19:00:00;7,9;100488;90;0,0059;0,0;0,6;302;1,1;0,3;-0,5;0;0;0;33,0;34,1;35,8;36,8;8,7;9,1;9,5;10,6;-11,0;19,4;1500
2021-11-04 20:00:00;7,8;100560;92;0,006;0,0;1,2;280;1,8;0,2;-1,14;0;0;0;32,9;34,1;35,8;36,8;8,7;9,1;9,5;10,6;-11,0;19,4;1468
2021-11-04 21:00:00;6,8;100642;93;0,0057;0,0;0,4;336;0,9;0,34;-0,17;0;0;0;32,8;34,1;35,8;36,8;8,4;9,0;9,5;10,6;-11,0;19,3;1425
2021-11-04 22:00:00;7,0;100725;94;0,0058;0,0;0,7;298;1,2;0,29;-0,56;0;0;0;32,8;34,0;35,8;36,8;8,4;9,0;9,5;10,6;-11,0;19,3;1484
2021-11-04 23:00:00;6,5;100790;94;0,0056;0,0;0,9;300;1,6;0,42;-0,76;0;0;0;32,8;34,0;35,8;36,8;8,3;9,0;9,5;10,6;-11,0;19,2;1469
2021-11-05 00:00:00;6,3;100848;96;0,0057;0,0;0,5;177;0,9;-0,03;-0,25;0;0;0;32,7;34,0;35,8;36,8;8,2;8,9;9,5;10,5;-11,0;19,1;1534
2021-11-05 01:00:00;6,5;100900;95;0,0057;0,0;0,6;282;1,2;0,19;-0,5;0;0;0;32,7;33,9;35,8;36,9;8,1;8,9;9,5;10,5;-11,0;19,2;1509
2021-11-05 02:00:00;7,2;100960;94;0,0059;0,0;1,0;262;1,8;0,22;-0,83;0;0;0;32,6;33,9;35,7;36,9;8,2;8,8;9,5;10,5;-11,0;19,3;1514
2021-11-05 03:00:00;7,6;101035;94;0,0061;0,0;1,5;304;3,0;0,86;-1,27;0;0;0;32,6;33,9;35,7;36,9;8,3;8,8;9,5;10,5;-11,0;19,4;1544
2021-11-05 04:00:00;7,7;101137;93;0,006;0,0;1,7;304;3,7;0,94;-1,37;0;0;0;32,6;33,8;35,7;36,9;8,3;8,8;9,5;10,5;-11,0;19,7;1602
2021-11-05 05:00:00;7,6;101208;92;0,0059;0,0;1,7;294;3,3;0,7;-1,59;0;0;0;32,5;33,8;35,7;36,9;8,3;8,8;9,4;10,5;-11,0;19,7;1602
2021-11-05 06:00:00;7,4;101295;92;0,0058;0,0;1,8;300;3,4;0,9;-1,58;1;0;0;32,5;33,8;35,7;36,9;8,3;8,8;9,4;10,5;-11,0;19,9;1522
2021-11-05 07:00:00;7,6;101393;92;0,0059;0,0;1,7;304;4,0;0,98;-1,45;11;0;0;32,5;33,7;35,7;36,9;8,3;8,8;9,4;10,5;-11,0;20,1;1555
2021-11-05 08:00:00;7,7;101490;92;0,0059;0,0;1,8;305;3,5;1,04;-1,46;41;0;0;32,5;33,7;35,6;36,9;8,4;8,8;9,4;10,5;-11,0;19,9;1580
2021-11-05 09:00:00;8,2;101565;92;0,0061;0,0;1,4;302;3,1;0,72;-1,17;73;0;0;32,4;33,7;35,6;36,9;8,6;8,8;9,4;10,5;-11,0;19,9;1496
2021-11-05 10:00:00;8,8;101640;93;0,0064;0,02;1,4;303;3,0;0,74;-1,13;123;0;0;32,4;33,7;35,6;36,9;8,8;8,9;9,4;10,5;-11,0;19,9;1450
2021-11-05 11:00:00;10,0;101663;90;0,0068;0,0;1,4;304;3,1;0,78;-1,13;157;0;0;32,4;33,7;35,6;36,9;9,2;8,9;9,4;10,5;-11,0;19,8;1455
2021-11-05 12:00:00;10,8;101697;84;0,0066;0,0;2,3;303;4,9;1,26;-1,89;93;0;0;32,3;33,6;35,6;36,9;9,4;9,1;9,4;10,5;-11,0;19,7;1451
2021-11-05 13:00:00;11,0;101730;82;0,0066;0,0;2,6;303;4,9;1,42;-2,17;70;0;0;32,3;33,6;35,6;36,9;9,5;9,2;9,4;10,5;-11,0;19,7;1423
2021-11-05 14:00:00;11,2;101775;81;0,0066;0,0;1,9;296;4,1;0,86;-1,73;55;0;0;32,3;33,6;35,6;36,9;9,5;9,3;9,4;10,5;-11,0;19,5;1412
2021-11-05 15:00:00;11,0;101802;81;0,0065;0,0;1,5;295;3,0;0,63;-1,34;21;0;0;32,2;33,6;35,6;36,9;9,5;9,4;9,5;10,4;-11,0;19,4;1418
2021-11-05 16:00:00;10,6;101857;83;0,0065;0,0;1,3;299;2,8;0,62;-1,09;1;0;0;32,2;33,5;35,6;36,9;9,4;9,4;9,5;10,4;-11,0;19,3;1408
2021-11-05 17:00:00;10,4;101930;84;0,0064;0,0;1,6;294;3,3;0,69;-1,49;0;0;0;32,2;33,5;35,6;36,9;9,3;9,4;9,6;10,4;-11,0;19,3;1425
2021-11-05 18:00:00;10,1;102008;87;0,0066;0,0;1,8;296;3,6;0,81;-1,61;0;0;0;32,2;33,5;35,5;36,9;9,3;9,4;9,6;10,4;-11,0;19,3;1362
2021-11-05 19:00:00;9,6;102067;88;0,0064;0,0;1,6;294;3,0;0,65;-1,42;0;0;0;32,1;33,5;35,5;36,9;9,2;9,4;9,6;10,4;-11,0;19,2;1534
2021-11-05 20:00:00;9,0;102112;88;0,0062;0,0;1,7;290;3,2;0,6;-1,61;0;0;0;32,1;33,5;35,5;36,9;9,1;9,4;9,6;10,4;-11,1;19,2;1414
2021-11-05 21:00:00;8,4;102170;90;0,006;0,0;2,2;287;4,1;0,66;-2,04;0;0;0;32,1;33,4;35,5;36,9;8,9;9,4;9,7;10,4;-11,1;19,3;1413
2021-11-05 22:00:00;7,9;102210;92;0,006;0,0;1,8;286;2,9;0,52;-1,71;0;0;0;32,0;33,4;35,5;36,9;8,7;9,4;9,7;10,5;-11,1;19,3;1464
2021-11-05 23:00:00;7,9;102228;92;0,006;0,0;1,7;287;3,5;0,52;-1,58;0;0;0;32,0;33,4;35,5;36,9;8,6;9,3;9,7;10,4;-11,1;19,1;1432
2021-11-06 00:00:00;6,5;102250;94;0,0056;0,0;0,7;276;1,5;0,12;-0,67;0;0;0;32,0;33,4;35,5;36,9;8,4;9,2;9,7;10,4;-11,1;19,0;1465
2021-11-06 01:00:00;5,8;102273;94;0,0053;0,0;0,7;288;1,5;0,18;-0,66;0;0;0;32,0;33,3;35,5;36,9;8,2;9,1;9,7;10,5;-11,1;19,1;1469
2021-11-06 02:00:00;5,1;102262;94;0,005;0,0;0,7;300;1,2;0,3;-0,57;0;0;0;31,9;33,3;35,4;36,9;7,9;9,0;9,6;10,4;-11,1;18,9;1494
2021-11-06 03:00:00;4,6;102263;95;0,0049;0,0;0,6;297;1,2;0,24;-0,51;0;0;0;31,9;33,3;35,4;36,9;7,6;8,9;9,6;10,5;-11,1;18,9;1477
2021-11-06 04:00:00;4,1;102275;94;0,0047;0,02;0,8;294;1,4;0,32;-0,68;0;0;0;31,9;33,3;35,4;36,9;7,4;8,7;9,6;10,5;-11,1;18,9;1503
2021-11-06 05:00:00;3,7;102272;94;0,0046;0,04;0,6;239;1,1;0,38;-0,34;0;0;0;31,8;33,2;35,4;36,9;7,2;8,6;9,5;10,5;-11,1;18,7;1491
2021-11-06 06:00:00;3,3;102277;94;0,0044;0,04;0,4;46;0,9;0,27;0,3;1;0;0;31,8;33,2;35,4;36,9;7,0;8,5;9,5;10,4;-11,1;18,7;1499
2021-11-06 07:00:00;4,0;102292;96;0,0048;0,02;0,6;27;1,2;0,48;0,28;47;0;0;31,8;33,2;35,4;36,9;6,9;8,3;9,4;10,4;-11,1;18,6;1468
2021-11-06 08:00:00;6,3;102268;99;0,0057;0,02;1,2;144;2,5;-0,25;0,27;160;0;0;31,8;33,2;35,4;36,9;7,0;8,2;9,4;10,4;-11,1;18,7;1454
2021-11-06 09:00:00;8,3;102237;89;0,006;0,0;1,2;212;3,4;-1,0;-0,66;238;0;0;31,8;33,2;35,4;36,9;7,4;8,1;9,3;10,4;-11,1;18,7;1445
2021-11-06 10:00:00;9,6;102227;81;0,0059;0,0;3,0;266;5,6;-0,18;-2,94;267;0;0;31,8;33,2;35,4;36,9;7,8;8,2;9,2;10,4;-11,1;18,6;1501
2021-11-06 11:00:00;10,8;102165;76;0,006;0,0;4,3;268;7,3;-0,08;-4,31;314;0;0;31,7;33,1;35,4;36,9;8,1;8,3;9,2;10,4;-11,1;18,6;1480
2021-11-06 12:00:00;11,4;102113;75;0,0062;0,0;3,7;266;6,8;-0,22;-3,7;245;0;0;31,7;33,1;35,4;36,9;8,5;8,4;9,2;10,4;-11,1;18,5;1431
2021-11-06 13:00:00;11,8;102025;73;0,0062;0,0;2,3;244;4,7;-0,9;-2,05;215;0;0;31,7;33,1;35,4;36,9;8,7;8,6;9,1;10,4;-11,1;18,5;1480
2021-11-06 14:00:00;11,9;101948;70;0,006;0,0;1,8;206;3,5;-1,54;-0,8;98;0;0;31,7;33,1;35,3;36,9;9,0;8,7;9,2;10,4;-11,1;18,5;1429
2021-11-06 15:00:00;11,5;101893;73;0,006;0,0;1,0;230;2,2;-0,41;-0,65;17;0;0;31,7;33,1;35,3;36,9;9,1;8,9;9,2;10,4;-11,1;18,6;1442
2021-11-06 16:00:00;11,0;101875;74;0,006;0,0;2,3;268;4,2;-0,04;-2,32;1;0;0;31,7;33,1;35,3;36,9;9,1;9,0;9,2;10,3;-11,1;18,7;1523
2021-11-06 17:00:00;10,5;101828;75;0,0058;0,0;2,1;252;5,2;-0,6;-1,97;0;0;0;31,7;33,1;35,3;36,9;9,0;9,1;9,3;10,3;-11,1;18,8;1479
2021-11-06 18:00:00;10,0;101783;76;0,0057;0,0;2,8;261;5,9;-0,4;-2,79;0;0;0;31,6;33,0;35,3;36,9;9,0;9,1;9,3;10,3;-11,1;18,9;1477
2021-11-06 19:00:00;9,6;101740;77;0,0056;0,0;3,0;261;5,9;-0,46;-2,99;0;0;0;31,6;33,0;35,3;36,9;8,9;9,1;9,3;10,3;-11,1;19,0;1505
2021-11-06 20:00:00;9,6;101687;77;0,0056;0,0;3,7;259;7,0;-0,66;-3,6;0;0;0;31,6;33,0;35,3;36,9;8,8;9,1;9,4;10,3;-11,1;18,9;1533
2021-11-06 21:00:00;9,5;101635;76;0,0056;0,0;3,8;264;7,7;-0,37;-3,75;0;0;0;31,6;33,0;35,3;36,9;8,7;9,1;9,4;10,3;-11,1;18,9;1520
2021-11-06 22:00:00;9,6;101585;76;0,0056;0,0;3,8;238;9,1;-1,58;-3,0;0;0;0;31,5;33,0;35,3;36,9;8,7;9,1;9,4;10,3;-11,1;18,9;1573
2021-11-06 23:00:00;9,6;101480;76;0,0056;0,0;3,5;201;6,9;-3,29;-1,25;0;0;0;31,5;32,9;35,3;36,9;8,6;9,1;9,4;10,3;-11,1;19,0;1554
2021-11-07 00:00:00;10,0;101375;76;0,0057;0,0;3,6;254;7,0;-0,88;-3,44;0;0;0;31,5;32,9;35,2;36,9;8,6;9,1;9,4;10,3;-11,1;19,0;1598
2021-11-07 01:00:00;10,1;101298;76;0,0058;0,0;4,9;264;8,6;-0,43;-4,86;0;0;0;31,5;32,9;35,2;36,9;8,6;9,0;9,4;10,3;-11,2;19,0;1564
2021-11-07 02:00:00;9,8;101223;78;0,0059;0,0;5,3;269;9,4;0,0;-5,29;0;0;0;31,4;32,9;35,2;36,9;8,7;9,0;9,4;10,3;-11,2;19,0;1580
2021-11-07 03:00:00;9,8;101160;80;0,006;0,0;5,1;269;7,8;-0,08;-5,06;0;0;0;31,4;32,9;35,2;36,9;8,6;9,0;9,4;10,3;-11,2;18,9;1543
2021-11-07 04:00:00;9,9;101087;83;0,0062;0,0;4,5;269;7,4;-0,03;-4,45;0;0;0;31,4;32,8;35,2;36,9;8,7;9,0;9,4;10,3;-11,2;18,7;1598
2021-11-07 05:00:00;10,1;101037;83;0,0063;0,0;4,5;269;7,3;-0,05;-4,48;0;0;0;31,4;32,8;35,2;36,9;8,7;9,0;9,4;10,3;-11,2;18,7;1635
2021-11-07 06:00:00;10,4;101012;83;0,0065;0,0;4,0;274;6,5;0,24;-3,98;0;0;0;31,4;32,8;35,2;36,9;8,8;9,0;9,4;10,3;-11,2;18,6;1578
2021-11-07 07:00:00;10,9;101000;83;0,0067;0,0;4,5;274;7,7;0,34;-4,48;19;0;0;31,3;32,8;35,2;36,8;9,0;9,1;9,4;10,3;-11,2;18,5;1662
2021-11-07 08:00:00;10,7;101025;86;0,0068;0,9;4,1;286;7,7;1,14;-3,87;18;0;0;31,3;32,8;35,2;36,8;9,1;9,1;9,4;10,3;-11,2;18,4;1616
2021-11-07 09:00:00;10,7;101040;86;0,0069;0,0;3,4;288;7,1;1,1;-3,24;47;0;0;31,5;32,8;35,2;36,8;9,2;9,2;9,4;10,3;-11,2;18,5;1623
2021-11-07 10:00:00;11,2;101057;83;0,0068;0,0;3,5;293;8,4;1,4;-3,17;133;0;0;31,6;32,8;35,2;36,8;9,4;9,2;9,5;10,3;-11,2;18,5;1561
2021-11-07 11:00:00;11,6;101008;79;0,0067;0,0;3,5;292;7,3;1,34;-3,26;140;0;0;31,6;32,8;35,2;36,8;9,6;9,3;9,5;10,3;-11,2;18,6;1626
2021-11-07 12:00:00;11,8;100985;74;0,0063;0,0;3,9;293;8,4;1,56;-3,52;180;0;0;31,6;32,8;35,2;36,8;9,6;9,4;9,5;10,3;-11,2;18,7;1575
2021-11-07 13:00:00;11,6;100953;71;0,006;0,0;4,2;288;8,8;1,33;-3,97;89;0;0;31,6;32,8;35,2;36,8;9,6;9,5;9,5;10,3;-11,2;18,7;1630
2021-11-07 14:00:00;11,5;100960;70;0,0059;0,0;4,1;289;8,8;1,37;-3,84;74;0;0;31,5;32,8;35,2;36,8;9,6;9,5;9,6;10,3;-11,2;18,7;1651
2021-11-07 15:00:00;10,7;100998;70;0,0055;0,0;4,4;291;8,1;1,6;-4,04;16;0;0;31,5;32,8;35,2;36,8;9,4;9,5;9,6;10,3;-11,2;18,6;1644
2021-11-07 16:00:00;10,0;101027;73;0,0055;0,0;4,0;284;7,8;1,01;-3,86;0;0;0;31,4;32,8;35,2;36,8;9,1;9,5;9,6;10,3;-11,2;18,4;1617
2021-11-07 17:00:00;9,3;101117;75;0,0054;0,0;3,2;286;6,8;0,91;-3,11;0;0;0;31,4;32,8;35,2;36,8;8,9;9,5;9,6;10,3;-11,2;18,3;1613
2021-11-07 18:00:00;9,0;101160;77;0,0054;0,0;3,1;282;5,8;0,69;-3,06;0;0;0;31,4;32,8;35,1;36,8;8,7;9,4;9,7;10,3;-11,3;18,5;1604
2021-11-07 19:00:00;8,6;101188;78;0,0054;0,0;3,5;282;6,7;0,75;-3,45;0;0;0;31,4;32,8;35,1;36,8;8,5;9,3;9,7;10,3;-11,3;18,5;1628
2021-11-07 20:00:00;8,3;101250;81;0,0055;0,0;3,3;290;6,3;1,14;-3,13;0;0;0;31,3;32,7;35,1;36,8;8,4;9,2;9,6;10,3;-11,3;18,6;1543
2021-11-07 21:00:00;8,0;101300;84;0,0055;0,0;2,7;286;5,1;0,75;-2,58;0;0;0;31,3;32,7;35,1;36,8;8,3;9,1;9,6;10,3;-11,3;18,5;1561
2021-11-07 22:00:00;7,8;101342;85;0,0056;0,0;2,6;286;5,2;0,74;-2,48;0;0;0;31,3;32,7;35,1;36,8;8,3;9,1;9,6;10,3;-11,3;18,5;1583
2021-11-07 23:00:00;7,7;101362;85;0,0055;0,0;3,1;286;5,8;0,87;-2,98;0;0;0;31,3;32,7;35,1;36,8;8,2;9,0;9,6;10,3;-11,3;18,4;1529
2021-11-08 00:00:00;7,8;101390;85;0,0055;0,0;2,2;290;4,4;0,79;-2,1;0;0;0;31,3;32,7;35,1;36,8;8,1;8,9;9,6;10,3;-11,3;18,3;1602
2021-11-08 01:00:00;7,8;101392;85;0,0055;0,0;2,6;289;4,8;0,86;-2,45;0;0;0;31,2;32,7;35,1;36,8;8,1;8,9;9,5;10,3;-11,3;18,2;1566
2021-11-08 02:00:00;7,4;101413;86;0,0055;0,0;2,7;288;4,6;0,84;-2,57;0;0;0;31,2;32,7;35,1;36,8;8,0;8,8;9,5;10,3;-11,3;18,2;1589
2021-11-08 03:00:00;7,7;101437;86;0,0055;0,0;2,4;287;4,5;0,71;-2,3;0;0;0;31,2;32,6;35,1;36,8;8,0;8,8;9,5;10,3;-11,3;18,2;1640
2021-11-08 04:00:00;7,8;101450;86;0,0056;0,0;2,2;290;4,5;0,7;-2,03;0;0;0;31,2;32,6;35,1;36,8;8,0;8,7;9,4;10,3;-11,3;18,4;1601
2021-11-08 05:00:00;7,6;101473;87;0,0056;0,0;1,4;141;3,3;0,86;0,6;0;0;0;31,2;32,6;35,1;36,8;8,0;8,7;9,4;10,3;-11,3;18,4;1450
2021-11-08 06:00:00;7,8;101525;86;0,0056;0,0;0,8;274;2,1;0,11;-0,78;0;0;0;31,2;32,6;35,1;36,8;8,1;8,7;9,4;10,3;-11,3;18,4;1557
2021-11-08 07:00:00;7,6;101577;88;0,0056;0,0;0,7;131;1,5;0,06;0,33;16;0;0;31,2;32,6;35,1;36,8;8,1;8,7;9,4;10,3;-11,3;18,3;1521
2021-11-08 08:00:00;7,9;101620;89;0,0058;0,0;0,7;88;1,2;0,04;0,68;52;0;0;31,1;32,6;35,0;36,8;8,3;8,7;9,3;10,3;-11,3;18,5;1640
2021-11-08 09:00:00;8,6;101650;88;0,006;0,0;0,5;79;1,2;0,08;0,5;86;0;0;31,1;32,6;35,0;36,8;8,5;8,7;9,3;10,3;-11,3;18,4;1535
2021-11-08 10:00:00;9,5;101665;85;0,0062;0,0;0,9;169;2,1;0,47;-0,26;144;0;0;31,1;32,6;35,0;36,8;8,9;8,8;9,3;10,3;-11,3;18,3;1523
2021-11-08 11:00:00;10,3;101660;80;0,0062;0,0;1,7;287;3,7;0,43;-1,57;145;0;0;31,1;32,6;35,0;36,8;9,3;8,9;9,3;10,3;-11,3;18,3;1613
2021-11-08 12:00:00;11,4;101615;78;0,0065;0,0;1,4;295;3,5;0,59;-1,24;240;0;0;31,1;32,6;35,0;36,8;9,5;9,0;9,3;10,3;-11,3;18,1;1549